• In Germany
  • List of Countries
  • For 7 days
  • Water Temperature
  • Satellite Maps
  • Weather Map
  • Weather Widgets
  • user-avatar
    Login

    Hourly Weather Manama

    Today, 28 May, Monday

    Time Temperature Precipitation Wind Pressure Humidity
    00:00 +33°C° 0 mm 1 mps 754 mmHg 43%
    01:00 +33°C° 0 mm 1 mps 754 mmHg 44%
    02:00 +32°C° 0 mm 1 mps 754 mmHg 45%
    03:00 +32°C° 0 mm 1 mps 753 mmHg 46%
    04:00 +32°C° 0 mm 1 mps 754 mmHg 43%
    05:00 +33°C° 0 mm 1 mps 754 mmHg 40%
    06:00 +34°C° 0 mm 2 mps 754 mmHg 38%
    07:00 +35°C° 0 mm 1 mps 754 mmHg 35%
    08:00 +36°C° 0 mm 1 mps 754 mmHg 32%
    09:00 +37°C° 0 mm 1 mps 754 mmHg 29%
    10:00 +37°C° 0 mm 1 mps 754 mmHg 28%
    11:00 +39°C° 0 mm 1 mps 754 mmHg 26%
    12:00 +40°C° 0 mm 1 mps 754 mmHg 25%
    13:00 +40°C° 0 mm 2 mps 754 mmHg 24%
    14:00 +40°C° 0 mm 2 mps 753 mmHg 24%
    15:00 +41°C° 0 mm 2 mps 753 mmHg 23%
    16:00 +40°C° 0 mm 2 mps 753 mmHg 24%
    17:00 +39°C° 0 mm 3 mps 752 mmHg 24%
    18:00 +39°C° 0 mm 3 mps 752 mmHg 25%
    19:00 +38°C° 0 mm 2 mps 752 mmHg 27%
    20:00 +37°C° 0 mm 2 mps 752 mmHg 29%
    21:00 +35°C° 0 mm 1 mps 752 mmHg 32%
    22:00 +35°C° 0 mm 1 mps 752 mmHg 31%
    23:00 +35°C° 0 mm 1 mps 752 mmHg 31%

    Tomorrow, 29 May, Tuesday

    Time Temperature Precipitation Wind Pressure Humidity
    00:00 +34°C° 0 mm 1 mps 752 mmHg 31%
    01:00 +34°C° 0 mm 1 mps 752 mmHg 32%
    02:00 +33°C° 0 mm 1 mps 752 mmHg 32%
    03:00 +31°C° 0 mm 0 mps 751 mmHg 33%
    04:00 +31°C° 0 mm 0 mps 752 mmHg 32%
    05:00 +31°C° 0 mm 0 mps 752 mmHg 31%
    06:00 +32°C° 0 mm 0 mps 752 mmHg 30%
    07:00 +33°C° 0 mm 0 mps 753 mmHg 27%
    08:00 +36°C° 0 mm 1 mps 753 mmHg 25%
    09:00 +37°C° 0 mm 1 mps 753 mmHg 23%
    10:00 +39°C° 0 mm 1 mps 753 mmHg 21%
    11:00 +40°C° 0 mm 1 mps 752 mmHg 19%
    12:00 +41°C° 0 mm 1 mps 752 mmHg 17%
    13:00 +41°C° 0 mm 2 mps 752 mmHg 17%
    14:00 +43°C° 0 mm 3 mps 751 mmHg 16%
    15:00 +43°C° 0 mm 3 mps 751 mmHg 15%
    16:00 +42°C° 0 mm 4 mps 751 mmHg 18%
    17:00 +41°C° 0 mm 4 mps 751 mmHg 20%
    18:00 +40°C° 0 mm 4 mps 751 mmHg 22%
    19:00 +38°C° 0 mm 4 mps 751 mmHg 26%
    20:00 +37°C° 0 mm 3 mps 751 mmHg 29%
    21:00 +36°C° 0 mm 3 mps 752 mmHg 32%
    22:00 +36°C° 0 mm 2 mps 752 mmHg 34%
    23:00 +36°C° 0 mm 2 mps 751 mmHg 36%

    Day after tomorrow, 30 May, Wednesday

    Time Temperature Precipitation Wind Pressure Humidity
    00:00 +34°C° 0 mm 1 mps 751 mmHg 37%
    01:00 +34°C° 0 mm 1 mps 751 mmHg 39%
    02:00 +33°C° 0 mm 1 mps 751 mmHg 40%
    03:00 +33°C° 0 mm 1 mps 751 mmHg 42%
    04:00 +33°C° 0 mm 1 mps 751 mmHg 41%
    05:00 +34°C° 0 mm 1 mps 751 mmHg 40%
    06:00 +34°C° 0 mm 1 mps 751 mmHg 39%
    07:00 +35°C° 0 mm 1 mps 752 mmHg 37%
    08:00 +36°C° 0 mm 1 mps 752 mmHg 34%
    09:00 +39°C° 0 mm 1 mps 753 mmHg 31%
    10:00 +39°C° 0 mm 1 mps 753 mmHg 30%
    11:00 +40°C° 0 mm 1 mps 752 mmHg 28%
    12:00 +41°C° 0 mm 1 mps 752 mmHg 26%
    13:00 +42°C° 0 mm 2 mps 752 mmHg 26%
    14:00 +42°C° 0 mm 2 mps 752 mmHg 25%
    15:00 +44°C° 0 mm 3 mps 751 mmHg 24%
    16:00 +43°C° 0 mm 3 mps 751 mmHg 26%
    17:00 +42°C° 0 mm 3 mps 751 mmHg 27%
    18:00 +41°C° 0 mm 4 mps 752 mmHg 29%
    19:00 +39°C° 0 mm 3 mps 752 mmHg 31%
    20:00 +39°C° 0 mm 3 mps 752 mmHg 33%
    21:00 +38°C° 0 mm 3 mps 753 mmHg 35%
    22:00 +37°C° 0 mm 2 mps 752 mmHg 37%
    23:00 +37°C° 0 mm 2 mps 752 mmHg 38%

    31 May, Thursday

    Time Temperature Precipitation Wind Pressure Humidity
    00:00 +35°C° 0 mm 1 mps 752 mmHg 40%
    01:00 +35°C° 0 mm 1 mps 752 mmHg 41%
    02:00 +35°C° 0 mm 2 mps 751 mmHg 42%
    03:00 +35°C° 0 mm 2 mps 751 mmHg 44%
    04:00 +35°C° 0 mm 2 mps 752 mmHg 43%
    05:00 +36°C° 0 mm 2 mps 752 mmHg 42%
    06:00 +36°C° 0 mm 3 mps 752 mmHg 41%
    07:00 +37°C° 0 mm 3 mps 752 mmHg 37%
    08:00 +39°C° 0 mm 3 mps 753 mmHg 33%
    09:00 +40°C° 0 mm 3 mps 753 mmHg 29%
    10:00 +42°C° 0 mm 3 mps 753 mmHg 26%
    11:00 +43°C° 0 mm 2 mps 753 mmHg 23%
    12:00 +45°C° 0 mm 2 mps 752 mmHg 21%
    13:00 +45°C° 0 mm 3 mps 752 mmHg 21%
    14:00 +45°C° 0 mm 4 mps 752 mmHg 21%
    15:00 +46°C° 0 mm 5 mps 751 mmHg 21%
    16:00 +45°C° 0 mm 5 mps 751 mmHg 24%
    17:00 +42°C° 0 mm 4 mps 751 mmHg 27%
    18:00 +40°C° 0 mm 4 mps 751 mmHg 30%
    19:00 +39°C° 0 mm 3 mps 752 mmHg 30%
    20:00 +38°C° 0 mm 3 mps 752 mmHg 30%
    21:00 +38°C° 0 mm 2 mps 752 mmHg 30%
    22:00 +38°C° 0 mm 2 mps 752 mmHg 31%
    23:00 +37°C° 0 mm 2 mps 752 mmHg 32%

    1 June, Friday

    Time Temperature Precipitation Wind Pressure Humidity
    00:00 +36°C° 0 mm 1 mps 751 mmHg 33%
    01:00 +36°C° 0 mm 2 mps 751 mmHg 34%
    02:00 +36°C° 0 mm 2 mps 751 mmHg 36%
    03:00 +36°C° 0 mm 3 mps 751 mmHg 38%
    04:00 +36°C° 0 mm 2 mps 751 mmHg 36%
    05:00 +36°C° 0 mm 2 mps 752 mmHg 35%
    06:00 +36°C° 0 mm 2 mps 752 mmHg 34%
    07:00 +38°C° 0 mm 2 mps 752 mmHg 31%
    08:00 +39°C° 0 mm 2 mps 752 mmHg 28%
    09:00 +40°C° 0 mm 2 mps 753 mmHg 26%
    10:00 +41°C° 0 mm 2 mps 752 mmHg 24%
    11:00 +42°C° 0 mm 2 mps 752 mmHg 22%
    12:00 +45°C° 0 mm 2 mps 752 mmHg 20%
    13:00 +45°C° 0 mm 2 mps 751 mmHg 19%
    14:00 +46°C° 0 mm 2 mps 751 mmHg 17%
    15:00 +47°C° 0 mm 2 mps 750 mmHg 16%
    16:00 +45°C° 0 mm 3 mps 750 mmHg 18%
    17:00 +44°C° 0 mm 4 mps 750 mmHg 20%
    18:00 +43°C° 0 mm 5 mps 750 mmHg 23%
    19:00 +42°C° 0 mm 5 mps 751 mmHg 26%
    20:00 +40°C° 0 mm 5 mps 751 mmHg 30%
    21:00 +39°C° 0 mm 5 mps 751 mmHg 34%
    22:00 +37°C° 0 mm 4 mps 751 mmHg 35%
    23:00 +37°C° 0 mm 4 mps 751 mmHg 37%

    2 June, Saturday

    Time Temperature Precipitation Wind Pressure Humidity
    00:00 +36°C° 0 mm 4 mps 750 mmHg 38%
    01:00 +36°C° 0 mm 4 mps 750 mmHg 38%
    02:00 +36°C° 0 mm 4 mps 750 mmHg 37%
    03:00 +36°C° 0 mm 4 mps 750 mmHg 37%
    04:00 +36°C° 0 mm 4 mps 750 mmHg 37%
    05:00 +36°C° 0 mm 3 mps 751 mmHg 37%
    06:00 +36°C° 0 mm 3 mps 751 mmHg 37%
    07:00 +38°C° 0 mm 3 mps 751 mmHg 34%
    08:00 +39°C° 0 mm 3 mps 751 mmHg 30%
    09:00 +42°C° 0 mm 3 mps 752 mmHg 26%
    10:00 +43°C° 0 mm 3 mps 751 mmHg 24%
    11:00 +44°C° 0 mm 3 mps 751 mmHg 22%
    12:00 +46°C° 0 mm 2 mps 751 mmHg 20%
    13:00 +46°C° 0 mm 3 mps 750 mmHg 19%
    14:00 +47°C° 0 mm 4 mps 750 mmHg 18%
    15:00 +48°C° 0 mm 5 mps 749 mmHg 17%
    16:00 +46°C° 0 mm 5 mps 749 mmHg 21%
    17:00 +45°C° 0 mm 6 mps 749 mmHg 24%
    18:00 +42°C° 0 mm 6 mps 749 mmHg 27%
    19:00 +41°C° 0 mm 6 mps 749 mmHg 29%
    20:00 +40°C° 0 mm 6 mps 750 mmHg 30%
    21:00 +39°C° 0 mm 5 mps 750 mmHg 32%
    22:00 +39°C° 0 mm 5 mps 750 mmHg 33%
    23:00 +38°C° 0 mm 4 mps 750 mmHg 33%
    Show more